TimeEST,TemperatureF,Dew PointF,Humidity,Sea Level PressureIn,VisibilityMPH,Wind Direction,Wind SpeedMPH,Gust SpeedMPH,PrecipitationIn,Events,Conditions,WindDirDegrees,DateUTC
12:24 AM,35.6,30.2,81,30.23,7.0,North,3.5,-,N/A,,Overcast,10,2012-12-26 05:24:00
12:53 AM,35.1,30.0,82,30.25,7.0,NE,4.6,-,N/A,,Overcast,40,2012-12-26 05:53:00
1:06 AM,33.8,30.2,87,30.23,7.0,NE,3.5,-,N/A,,Overcast,50,2012-12-26 06:06:00
1:53 AM,34.0,28.9,82,30.22,8.0,NE,5.8,-,N/A,,Overcast,40,2012-12-26 06:53:00
2:53 AM,34.0,28.9,82,30.24,9.0,Calm,Calm,-,N/A,,Overcast,0,2012-12-26 07:53:00
3:53 AM,33.1,28.0,82,30.17,10.0,NE,6.9,-,N/A,,Overcast,50,2012-12-26 08:53:00
4:24 AM,33.8,24.8,70,30.17,10.0,ENE,4.6,-,N/A,,Overcast,60,2012-12-26 09:24:00
4:53 AM,32.0,25.0,75,30.19,10.0,ENE,4.6,-,N/A,,Overcast,60,2012-12-26 09:53:00
5:53 AM,32.0,24.1,73,30.19,10.0,East,3.5,-,N/A,,Overcast,80,2012-12-26 10:53:00
6:40 AM,30.2,24.8,80,30.15,1.2,ENE,4.6,-,0.00,Snow,Light Snow,60,2012-12-26 11:40:00
6:53 AM,30.0,25.0,82,30.17,1.8,ENE,4.6,-,0.01,Snow,Light Snow,60,2012-12-26 11:53:00
7:01 AM,30.2,26.6,86,30.14,2.0,ENE,4.6,-,0.00,Snow,Light Snow,60,2012-12-26 12:01:00
7:15 AM,30.2,26.6,86,30.13,1.5,NE,6.9,-,0.00,Snow,Light Snow,50,2012-12-26 12:15:00
7:51 AM,28.4,26.6,93,30.08,1.5,NNE,9.2,-,0.02,Snow,Light Snow,30,2012-12-26 12:51:00
7:53 AM,28.9,27.0,92,30.10,1.5,NNE,8.1,-,0.03,Snow,Light Snow,20,2012-12-26 12:53:00
7:58 AM,28.4,26.6,93,30.07,2.0,NNE,10.4,-,0.00,Snow,Light Snow,20,2012-12-26 12:58:00
8:07 AM,28.4,26.6,93,30.06,3.0,NNE,11.5,-,0.00,Snow,Light Snow,30,2012-12-26 13:07:00
8:21 AM,28.4,26.6,93,30.07,3.0,NNE,8.1,-,0.01,Rain,Light Freezing Rain,30,2012-12-26 13:21:00
8:27 AM,28.4,26.6,93,30.07,2.5,NE,8.1,-,0.02,Snow,Light Snow,40,2012-12-26 13:27:00
8:37 AM,28.4,26.6,93,30.07,1.0,ENE,4.6,-,0.03,Snow,Light Snow,60,2012-12-26 13:37:00
8:42 AM,28.4,26.6,93,30.07,0.5,ENE,4.6,-,0.05,Fog-Snow,Snow,60,2012-12-26 13:42:00
8:46 AM,28.4,26.6,93,30.08,0.2,ENE,3.5,-,0.05,Fog-Snow,Heavy Snow,70,2012-12-26 13:46:00
8:53 AM,28.9,27.0,92,30.10,0.2,Calm,Calm,-,0.07,Fog-Snow,Snow,0,2012-12-26 13:53:00
9:53 AM,28.9,26.1,89,30.07,0.2,NNE,6.9,-,0.09,Fog-Snow,Heavy Snow,20,2012-12-26 14:53:00
10:53 AM,28.9,26.1,89,30.02,0.2,NNE,8.1,-,0.09,Fog-Snow,Heavy Snow,20,2012-12-26 15:53:00
11:48 AM,28.4,26.6,93,29.94,0.5,North,8.1,-,0.11,Fog-Snow,Snow,10,2012-12-26 16:48:00
11:53 AM,28.9,26.1,89,29.95,0.5,NNE,8.1,-,0.12,Fog-Snow,Snow,20,2012-12-26 16:53:00
12:08 PM,28.4,26.6,93,29.93,0.5,North,6.9,-,0.02,Fog-Snow,Snow,10,2012-12-26 17:08:00
12:53 PM,28.9,26.1,89,29.86,0.2,NNE,10.4,-,0.10,Fog-Snow,Heavy Snow,20,2012-12-26 17:53:00
1:06 PM,28.4,26.6,93,29.83,0.5,NNE,9.2,-,0.04,Fog-Snow,Snow,20,2012-12-26 18:06:00
1:15 PM,28.4,26.6,93,29.81,1.2,NNE,6.9,-,0.06,Snow,Light Snow,30,2012-12-26 18:15:00
1:44 PM,28.4,26.6,93,29.79,1.0,NNE,8.1,-,0.10,Snow,Light Snow,20,2012-12-26 18:44:00
1:53 PM,28.9,27.0,92,29.79,1.0,North,8.1,-,0.11,Snow,Light Snow,10,2012-12-26 18:53:00
2:24 PM,30.2,28.4,93,29.72,2.0,NNE,12.7,-,0.10,Rain,Light Freezing Rain,20,2012-12-26 19:24:00
2:47 PM,30.2,28.4,93,29.71,3.0,NNW,10.4,-,0.14,Rain,Light Freezing Rain,340,2012-12-26 19:47:00
2:53 PM,30.9,28.0,89,29.74,2.5,NNW,9.2,-,0.15,Rain,Light Freezing Rain,340,2012-12-26 19:53:00
3:04 PM,30.2,28.4,93,29.72,1.2,NNW,12.7,-,0.07,Rain,Light Freezing Rain,330,2012-12-26 20:04:00
3:37 PM,30.2,28.4,93,29.67,3.0,NNE,16.1,-,0.16,Rain,Light Freezing Rain,20,2012-12-26 20:37:00
3:53 PM,32.0,28.9,88,29.71,5.0,NNW,9.2,-,0.16,Rain,Light Freezing Rain,340,2012-12-26 20:53:00
4:00 PM,32.0,28.4,87,29.67,2.5,North,10.4,-,0.01,Rain,Light Freezing Rain,350,2012-12-26 21:00:00
4:09 PM,30.2,28.4,93,29.66,1.5,North,11.5,-,0.03,Rain,Light Freezing Rain,360,2012-12-26 21:09:00
4:17 PM,30.2,28.4,93,29.66,1.2,North,11.5,-,0.04,Snow,Light Snow,360,2012-12-26 21:17:00
4:53 PM,30.9,28.9,92,29.64,2.0,North,12.7,20.7,0.09,Snow,Light Snow,360,2012-12-26 21:53:00
5:53 PM,32.0,28.9,88,29.59,4.0,North,16.1,23.0,0.01,Snow,Light Snow,10,2012-12-26 22:53:00
6:04 PM,32.0,28.4,87,29.57,5.0,North,13.8,-,0.00,Snow,Light Snow,360,2012-12-26 23:04:00
6:35 PM,32.0,28.4,87,29.56,7.0,North,11.5,19.6,0.00,,Overcast,360,2012-12-26 23:35:00
6:53 PM,33.1,30.0,89,29.56,4.0,North,13.8,23.0,0.01,Rain,Rain,360,2012-12-26 23:53:00
7:53 PM,33.1,30.9,92,29.53,4.0,North,8.1,-,0.04,Rain,Light Rain,350,2012-12-27 00:53:00
8:53 PM,33.1,30.9,92,29.53,4.0,North,13.8,-,0.10,Snow,Light Snow,350,2012-12-27 01:53:00
9:53 PM,34.0,30.9,89,29.51,7.0,NNW,9.2,-,0.01,,Overcast,340,2012-12-27 02:53:00
10:36 PM,33.8,32.0,93,29.51,4.0,NW,6.9,-,0.01,,Overcast,320,2012-12-27 03:36:00
10:45 PM,33.8,30.2,87,29.51,4.0,NW,9.2,-,0.01,Rain,Light Rain,320,2012-12-27 03:45:00
10:53 PM,34.0,30.9,89,29.52,5.0,NW,10.4,-,0.02,Rain,Light Rain,320,2012-12-27 03:53:00
11:12 PM,33.8,32.0,93,29.51,4.0,NW,6.9,-,0.01,Snow,Light Snow,320,2012-12-27 04:12:00
11:41 PM,33.8,30.2,87,29.51,4.0,NW,9.2,-,0.02,Snow,Light Snow,310,2012-12-27 04:41:00
11:53 PM,33.1,30.9,92,29.53,3.0,NW,8.1,-,0.03,Snow,Light Snow,320,2012-12-27 04:53:00